Flag for Australia Weather past 2 weeks in Campbelltown, New South Wales, Australia

Now
58 °F

Cool.


Feels Like: 58 °F
Forecast: 58 / 79 °F
Wind: No wind

Location: Camden Airport

Current Time: Apr 1, 2015 at 2:43:31 AM

Latest Report: Apr 1, 2015 at 1:00 AM


Visibility: N/A

Pressure: 30.28 "Hg

Humidity: 99%

Dew point: 58 °F

Location of CampbelltownLocation

Historic Weather in Campbelltown — Graph

°F

Campbelltown temperature yesterday

Maximum temperature yesterday: 73 °F (at 12:00 PM)
Minimum temperature yesterday: 57 °F (at 7:00 AM)
Average temperature yesterday: 65 °F

Past Weeks' High & Low Weather Summary

 TemperatureHumidityPressure
High87 °F (Mar 19, 4:00 PM)99% (Mar 19, 4:00 AM)30.33 "Hg (Mar 19, 4:00 AM)
Low45 °F (Mar 28, 7:00 AM)25% (Mar 27, 3:00 PM)29.60 "Hg (Mar 18, 4:00 PM)
Average66 °F73%30.05 "Hg
* Reported Mar 17 1:00 AM — Apr 1 1:00 AM, Campbelltown, Weather by CustomWeather, © 2015

Note: Actual official high and low records may vary slightly from our data, if they occured in-between our weather recording intervals... More about our weather records

Advertising

Campbelltown weather history for previous 24 hours

 ConditionsComfort  
Time TempWeatherWind HumidityBarometerVisibility
1:00 AM
Wed, Apr 1
58 °FCool.No wind99%30.28 "HgN/A
12:00 AM58 °FOvercast.2 mph99%30.30 "HgN/A
10:00 PM
Tue, Mar 31
60 °FCool.No wind95%30.31 "HgN/A
9:00 PM62 °FCool.No wind92%30.31 "HgN/A
7:00 PM67 °FMild.6 mph76%30.27 "HgN/A
6:00 PM68 °FOvercast.3 mph79%30.27 "HgN/A
4:00 PM69 °FMild.9 mph73%30.27 "HgN/A
3:00 PM71 °FOvercast.8 mph69%30.27 "HgN/A
1:00 PM72 °FMild.8 mph60%30.29 "HgN/A
12:00 PM73 °FOvercast.5 mph62%30.31 "HgN/A
10:00 AM67 °FMild.No wind81%30.33 "HgN/A
9:00 AM64 °FPassing clouds.3 mph87%30.31 "HgN/A
7:00 AM57 °FCool.No wind98%30.27 "HgN/A
6:00 AM59 °FPassing clouds.3 mph97%30.26 "Hg5 mi
4:00 AM60 °FCool.5 mph95%30.26 "HgN/A
3:00 AM62 °FPassing clouds.6 mph96%30.27 "HgN/A
Weather by CustomWeather, © 2015

See weather overviewHow to use our weather pages